Location: Unspecified
(0.0000°N, 0.0000°E)
Time: 08:42:22

N. Korean satellite - Pass Details

Date: 12 March 2018
Orbit: 460 x 512 km, 97.2° (Epoch: 20 March)

Event Time Altitude Azimuth Distance (km) Brightness Sun altitude
Rises 19:08:19 0° 205° (SSW) 2,495 10.6 -14.6°
Reaches altitude 10° 19:11:48 10° 243° (WSW) 1,625 10.3 -15.5°
Maximum altitude 19:12:44 11° 259° (W) 1,574 10.5 -15.7°
Drops below altitude 10° 19:13:40 10° 275° (W) 1,629 10.6 -16.0°
Sets 19:17:11 0° 313° (NW) 2,516 10.9 -16.8°
